Time,TemperatureF,DewpointF,PressureIn,WindDirection,WindDirectionDegrees,WindSpeedMPH,WindSpeedGustMPH,Humidity,HourlyPrecipIn,Conditions,Clouds,dailyrainin,SoftwareType,DateUTC
2013-06-21 00:05:00,62.0,52.1,30.15,SW,225,6.0,13.0,70,0.00,,,-99.99,WeatherLink 5.5,2013-06-21 04:05:00,
2013-06-21 01:05:00,62.0,52.1,30.15,SW,225,6.0,13.0,70,0.00,,,-99.99,WeatherLink 5.5,2013-06-21 05:05:00,
2013-06-21 02:05:00,60.7,52.4,30.16,SW,225,6.0,13.0,74,0.00,,,-99.99,WeatherLink 5.5,2013-06-21 06:05:00,
2013-06-21 03:05:00,59.6,52.4,30.15,WSW,247,6.0,12.0,77,0.00,,,-99.99,WeatherLink 5.5,2013-06-21 07:05:00,
2013-06-21 04:05:00,59.5,52.6,30.14,WSW,247,5.0,12.0,78,0.00,,,-99.99,WeatherLink 5.5,2013-06-21 08:05:00,
2013-06-21 05:05:00,58.7,52.2,30.14,West,270,5.0,11.0,79,0.00,,,-99.99,WeatherLink 5.5,2013-06-21 09:05:00,
2013-06-21 06:05:00,57.3,51.9,30.15,West,270,4.0,7.0,82,0.00,,,-99.99,WeatherLink 5.5,2013-06-21 10:05:00,
2013-06-21 07:05:00,58.4,51.9,30.17,West,270,5.0,8.0,79,0.00,,,-99.99,WeatherLink 5.5,2013-06-21 11:05:00,
2013-06-21 08:05:00,63.7,52.9,30.17,West,270,6.0,11.0,68,0.00,,,-99.99,WeatherLink 5.5,2013-06-21 12:05:00,
2013-06-21 09:05:00,67.1,54.1,30.17,West,270,7.0,16.0,63,0.00,,,-99.99,WeatherLink 5.5,2013-06-21 13:05:00,
2013-06-21 10:05:00,69.8,56.2,30.17,WSW,247,7.0,14.0,62,0.00,,,-99.99,WeatherLink 5.5,2013-06-21 14:05:00,
2013-06-21 11:05:00,73.5,58.3,30.17,West,270,7.0,14.0,59,0.00,,,-99.99,WeatherLink 5.5,2013-06-21 15:05:00,
2013-06-21 12:05:00,77.7,60.2,30.17,West,270,6.0,12.0,55,0.00,,,-99.99,WeatherLink 5.5,2013-06-21 16:05:00,
2013-06-21 13:05:00,80.1,60.3,30.17,WSW,247,5.0,13.0,51,0.00,,,-99.99,WeatherLink 5.5,2013-06-21 17:05:00,
2013-06-21 14:05:00,82.2,62.3,30.17,WSW,247,5.0,11.0,51,0.00,,,-99.99,WeatherLink 5.5,2013-06-21 18:05:00,
2013-06-21 15:05:00,81.8,61.9,30.15,WSW,247,7.0,16.0,51,0.00,,,-99.99,WeatherLink 5.5,2013-06-21 19:05:00,
2013-06-21 16:05:00,78.1,61.6,30.15,WSW,247,6.0,17.0,57,0.00,,,-99.99,WeatherLink 5.5,2013-06-21 20:05:00,
2013-06-21 17:05:00,80.3,61.6,30.14,WSW,247,5.0,13.0,53,0.00,,,-99.99,WeatherLink 5.5,2013-06-21 21:05:00,
2013-06-21 18:05:00,79.8,61.1,30.14,WSW,247,6.0,13.0,53,0.00,,,-99.99,WeatherLink 5.5,2013-06-21 22:05:00,
2013-06-21 19:05:00,77.9,59.9,30.13,WSW,247,5.0,12.0,54,0.00,,,-99.99,WeatherLink 5.5,2013-06-21 23:05:00,
2013-06-21 20:05:00,76.1,60.2,30.13,WSW,247,6.0,13.0,58,0.00,,,-99.99,WeatherLink 5.5,2013-06-22 00:05:00,
2013-06-21 21:05:00,73.3,59.0,30.13,WSW,247,4.0,11.0,61,0.00,,,-99.99,WeatherLink 5.5,2013-06-22 01:05:00,
2013-06-21 22:05:00,69.4,56.7,30.14,SW,225,5.0,14.0,64,0.00,,,-99.99,WeatherLink 5.5,2013-06-22 02:05:00,
2013-06-21 23:05:00,67.6,55.4,30.14,WSW,247,6.0,14.0,65,0.00,,,-99.99,WeatherLink 5.5,2013-06-22 03:05:00,